{"data":{"norad_id":56320,"intl_designator":"2023-058D","name":"STARLINK-5988","alt_names":[],"object_type":"PAYLOAD","status":"ACTIVE","operator":null,"country":"US","launch_date":"2023-04-27","launch_site_code":"AFWTR","launch_vehicle":null,"mission":null,"orbit_class":"UNKNOWN","rcs_meters":null,"size_class":null,"mass_kg":null,"dimensions":null,"purposes":["comms"],"wikipedia_slug":null,"has_3d_model":false,"image_url":null,"decayed_at":null,"tle_current":{"epoch":"2026-09-20T22:00:03.000096Z","epoch_age_seconds":72771,"freshness":"FRESH","line1":"1 56320U 23058D   26263.91670139  .00724331  00000+0  31858-1 0  9994","line2":"2 56320  97.2855 257.7675 0001678  87.2254 341.4864 15.19410886  5696","mean_motion":15.19410886,"eccentricity":0.0001678,"inclination_deg":97.2855,"raan_deg":257.7675,"arg_perigee_deg":87.2254,"mean_anomaly_deg":341.4864,"bstar":0.031858,"rev_number":569,"period_min":94.773573973196,"perigee_km":506.46446350038,"apogee_km":508.77532351384,"semimajor_km":6885.7568935071,"source":"CELESTRAK","updated_at":"2026-09-21T09:00:33.401020Z"}}}